• In Belgium
  • List of Countries
  • For 7 days
  • Water Temperature
  • Satellite Maps
  • Weather Map
  • Weather Widgets
  • user-avatar
    Login

    Hourly Weather Berchtesgaden

    Today, 23 February, Friday

    Time Temperature Precipitation Wind Pressure Humidity
    00:00 -7°C° 0 mm 2 mps 703 mmHg 93%
    01:00 -7°C° 0 mm 2 mps 703 mmHg 93%
    02:00 -6°C° 0 mm 1 mps 702 mmHg 93%
    03:00 -6°C° 0 mm 1 mps 702 mmHg 92%
    04:00 -6°C° 0 mm 1 mps 702 mmHg 92%
    05:00 -6°C° 0 mm 1 mps 702 mmHg 92%
    06:00 -6°C° 0 mm 1 mps 702 mmHg 92%
    07:00 -6°C° 0 mm 1 mps 702 mmHg 92%
    08:00 -6°C° 0 mm 2 mps 702 mmHg 90%
    09:00 -4°C° 0 mm 2 mps 702 mmHg 88%
    10:00 -2°C° 0 mm 2 mps 702 mmHg 86%
    11:00 -1°C° 0 mm 2 mps 702 mmHg 87%
    12:00 +1°C° 0 mm 2 mps 702 mmHg 87%
    13:00 +2°C° 0 mm 2 mps 702 mmHg 88%
    14:00 +2°C° 0 mm 2 mps 702 mmHg 88%
    15:00 +1°C° 0 mm 3 mps 702 mmHg 89%
    16:00 +1°C° 0 mm 3 mps 702 mmHg 90%
    17:00 +1°C° 0 mm 2 mps 702 mmHg 91%
    18:00 -1°C° 0 mm 2 mps 702 mmHg 92%
    19:00 -2°C° 0 mm 2 mps 702 mmHg 94%
    20:00 -2°C° 0 mm 2 mps 703 mmHg 94%
    21:00 -3°C° 0 mm 2 mps 703 mmHg 93%
    22:00 -3°C° 0 mm 2 mps 703 mmHg 93%
    23:00 -4°C° 0 mm 2 mps 703 mmHg 92%

    Tomorrow, 24 February, Saturday

    Time Temperature Precipitation Wind Pressure Humidity
    00:00 -4°C° 0 mm 2 mps 703 mmHg 92%
    01:00 -4°C° 0 mm 2 mps 703 mmHg 91%
    02:00 -5°C° 0 mm 2 mps 703 mmHg 91%
    03:00 -5°C° 0 mm 2 mps 703 mmHg 90%
    04:00 -5°C° 0 mm 2 mps 703 mmHg 90%
    05:00 -5°C° 0 mm 2 mps 703 mmHg 90%
    06:00 -6°C° 0 mm 2 mps 703 mmHg 90%
    07:00 -6°C° 0 mm 2 mps 703 mmHg 90%
    08:00 -5°C° 0 mm 2 mps 703 mmHg 88%
    09:00 -3°C° 0 mm 2 mps 704 mmHg 86%
    10:00 -2°C° 0 mm 2 mps 704 mmHg 84%
    11:00 -1°C° 0 mm 3 mps 704 mmHg 83%
    12:00 0°C° 0 mm 3 mps 704 mmHg 82%
    13:00 0°C° 0 mm 3 mps 704 mmHg 81%
    14:00 0°C° 0.1 mm 3 mps 704 mmHg 81%
    15:00 0°C° 0.1 mm 3 mps 704 mmHg 81%
    16:00 -1°C° 0.1 mm 3 mps 704 mmHg 81%
    17:00 -2°C° 0.1 mm 3 mps 704 mmHg 83%
    18:00 -4°C° 0.1 mm 3 mps 704 mmHg 86%
    19:00 -6°C° 0.1 mm 3 mps 705 mmHg 88%
    20:00 -6°C° 0.1 mm 3 mps 705 mmHg 88%
    21:00 -7°C° 0.1 mm 3 mps 705 mmHg 88%
    22:00 -8°C° 0.1 mm 3 mps 706 mmHg 88%
    23:00 -8°C° 0 mm 3 mps 706 mmHg 88%

    Day after tomorrow, 25 February, Sunday

    Time Temperature Precipitation Wind Pressure Humidity
    00:00 -9°C° 0 mm 3 mps 706 mmHg 87%
    01:00 -10°C° 0 mm 3 mps 706 mmHg 87%
    02:00 -10°C° 0 mm 3 mps 706 mmHg 86%
    03:00 -10°C° 0 mm 2 mps 706 mmHg 86%
    04:00 -10°C° 0 mm 2 mps 706 mmHg 85%
    05:00 -12°C° 0 mm 2 mps 706 mmHg 86%
    06:00 -13°C° 0 mm 2 mps 706 mmHg 86%
    07:00 -13°C° 0 mm 2 mps 706 mmHg 86%
    08:00 -12°C° 0 mm 2 mps 706 mmHg 83%
    09:00 -10°C° 0 mm 2 mps 706 mmHg 81%
    10:00 -10°C° 0 mm 3 mps 707 mmHg 78%
    11:00 -9°C° 0 mm 3 mps 706 mmHg 76%
    12:00 -8°C° 0 mm 3 mps 706 mmHg 74%
    13:00 -7°C° 0 mm 3 mps 706 mmHg 71%
    14:00 -7°C° 0.1 mm 3 mps 706 mmHg 72%
    15:00 -8°C° 0.1 mm 3 mps 705 mmHg 73%
    16:00 -8°C° 0.1 mm 3 mps 705 mmHg 74%
    17:00 -9°C° 0.1 mm 3 mps 706 mmHg 77%
    18:00 -9°C° 0.1 mm 2 mps 706 mmHg 81%
    19:00 -12°C° 0.1 mm 2 mps 706 mmHg 84%
    20:00 -12°C° 0 mm 2 mps 706 mmHg 85%
    21:00 -13°C° 0 mm 2 mps 707 mmHg 86%
    22:00 -14°C° 0 mm 2 mps 707 mmHg 86%
    23:00 -12°C° 0 mm 1 mps 707 mmHg 87%

    26 February, Monday

    Time Temperature Precipitation Wind Pressure Humidity
    00:00 -13°C° 0 mm 1 mps 706 mmHg 87%
    01:00 -13°C° 0 mm 1 mps 706 mmHg 88%
    02:00 -14°C° 0 mm 1 mps 706 mmHg 88%
    03:00 -14°C° 0 mm 1 mps 706 mmHg 88%
    04:00 -14°C° 0 mm 1 mps 706 mmHg 89%
    05:00 -14°C° 0 mm 1 mps 706 mmHg 89%
    06:00 -15°C° 0 mm 1 mps 706 mmHg 89%
    07:00 -15°C° 0 mm 1 mps 706 mmHg 89%
    08:00 -15°C° 0 mm 2 mps 706 mmHg 86%
    09:00 -14°C° 0 mm 2 mps 705 mmHg 82%
    10:00 -13°C° 0 mm 2 mps 705 mmHg 79%
    11:00 -12°C° 0.1 mm 2 mps 705 mmHg 77%
    12:00 -10°C° 0.1 mm 2 mps 704 mmHg 75%
    13:00 -10°C° 0.1 mm 3 mps 704 mmHg 72%
    14:00 -10°C° 0.1 mm 3 mps 704 mmHg 73%
    15:00 -10°C° 0.1 mm 3 mps 704 mmHg 73%
    16:00 -12°C° 0.1 mm 3 mps 703 mmHg 74%
    17:00 -10°C° 0.1 mm 2 mps 703 mmHg 77%
    18:00 -12°C° 0.1 mm 2 mps 704 mmHg 81%
    19:00 -11°C° 0.1 mm 1 mps 704 mmHg 84%
    20:00 -11°C° 0.1 mm 1 mps 704 mmHg 85%
    21:00 -12°C° 0.1 mm 1 mps 704 mmHg 87%
    22:00 -12°C° 0.1 mm 1 mps 704 mmHg 88%
    23:00 -12°C° 0.1 mm 1 mps 704 mmHg 88%

    27 February, Tuesday

    Time Temperature Precipitation Wind Pressure Humidity
    00:00 -13°C° 0.1 mm 1 mps 704 mmHg 89%
    01:00 -13°C° 0.1 mm 1 mps 703 mmHg 89%
    02:00 -13°C° 0.1 mm 1 mps 703 mmHg 89%
    03:00 -13°C° 0.1 mm 1 mps 703 mmHg 89%
    04:00 -13°C° 0.1 mm 1 mps 702 mmHg 89%
    05:00 -14°C° 0 mm 1 mps 702 mmHg 89%
    06:00 -14°C° 0 mm 1 mps 702 mmHg 89%
    07:00 -14°C° 0 mm 1 mps 702 mmHg 89%
    08:00 -13°C° 0 mm 1 mps 702 mmHg 85%
    09:00 -12°C° 0 mm 1 mps 702 mmHg 81%
    10:00 -13°C° 0 mm 2 mps 702 mmHg 78%
    11:00 -12°C° 0.1 mm 2 mps 701 mmHg 75%
    12:00 -10°C° 0.1 mm 2 mps 701 mmHg 73%
    13:00 -9°C° 0.1 mm 2 mps 701 mmHg 71%
    14:00 -9°C° 0.1 mm 2 mps 701 mmHg 71%
    15:00 -10°C° 0.1 mm 2 mps 701 mmHg 72%
    16:00 -10°C° 0.1 mm 2 mps 700 mmHg 72%
    17:00 -10°C° 0 mm 1 mps 701 mmHg 76%
    18:00 -11°C° 0 mm 1 mps 701 mmHg 80%
    19:00 -12°C° 0 mm 1 mps 701 mmHg 84%
    20:00 -13°C° 0 mm 1 mps 701 mmHg 84%
    21:00 -13°C° 0 mm 1 mps 701 mmHg 85%
    22:00 -14°C° 0 mm 1 mps 702 mmHg 86%
    23:00 -14°C° 0 mm 1 mps 702 mmHg 85%

    28 February, Wednesday

    Time Temperature Precipitation Wind Pressure Humidity
    00:00 -14°C° 0 mm 1 mps 702 mmHg 85%
    01:00 -15°C° 0 mm 1 mps 702 mmHg 84%
    02:00 -15°C° 0 mm 1 mps 701 mmHg 84%
    03:00 -15°C° 0 mm 1 mps 701 mmHg 83%
    04:00 -15°C° 0 mm 1 mps 701 mmHg 82%
    05:00 -15°C° 0 mm 1 mps 701 mmHg 82%
    06:00 -15°C° 0 mm 1 mps 701 mmHg 82%
    07:00 -16°C° 0 mm 1 mps 701 mmHg 81%
    08:00 -13°C° 0 mm 1 mps 702 mmHg 77%
    09:00 -11°C° 0 mm 1 mps 702 mmHg 72%
    10:00 -8°C° 0 mm 1 mps 702 mmHg 67%
    11:00 -7°C° 0 mm 1 mps 702 mmHg 66%
    12:00 -6°C° 0 mm 1 mps 701 mmHg 64%
    13:00 -6°C° 0 mm 2 mps 701 mmHg 62%
    14:00 -6°C° 0 mm 2 mps 701 mmHg 64%
    15:00 -6°C° 0 mm 2 mps 700 mmHg 66%
    16:00 -6°C° 0 mm 2 mps 700 mmHg 68%
    17:00 -7°C° 0 mm 2 mps 700 mmHg 73%
    18:00 -9°C° 0 mm 2 mps 700 mmHg 77%
    19:00 -10°C° 0 mm 2 mps 701 mmHg 82%
    20:00 -10°C° 0 mm 2 mps 701 mmHg 82%
    21:00 -10°C° 0 mm 2 mps 701 mmHg 82%
    22:00 -10°C° 0 mm 2 mps 701 mmHg 82%
    23:00 -10°C° 0 mm 2 mps 700 mmHg 82%
    Show more